Presure
142 127 112 117 96 151 102 130 100 142 160 154 161 136 156 125 188 161 161 168 185 193 183 144 206 150 160 175 190 189 229 228 196 203 203 180 181 177 190 181 176 186 169 186 177 187 188
126 104 135 110 133 115 125 139 147 123 158 139 157 169 167 164 129 117 163 189 141 200 142 170 126 213 185 198 202 207 198 176 196 200 192 173 171 190 185 183 187 188 187 205 159 193 183
112 136 119 123 127 118 109 133 150 96 181 155 91 178 150 122 179 160 137 164 169 175 187 179 208 198 193 209 198 198 217 227 210 209 210 204 193 192 200 197 196 198 203 205 163 170 190
126 124 104 119 129 114 151 116 113 157 171 128 176 157 157 120 183 168 154 135 176 106 200 158 153 193 191 179 195 182 199 179 195 177 180 186 179 156 161 181 182 162 154 170 177 188 168
136 102 118 155 133 136 117 118 114 166 155 144 94 164 119 172 161 158 168 162 184 159 180 173 179 190 160 164 191 200 201 180 189 179 180 156 177 188 165 177 176 150 182 179 171 175 167
100 124 126 172 106 103 133 123 107 138 177 116 164 136 126 180 168 155 164 181 167 169 188 191 190 184 186 182 186 178 188 187 162 196 190 148 194 170 166 183 152 182 185 180 194 198 200
115 142 113 117 176 142 99 159 143 112 187 175 138 149 104 191 170 159 161 130 168 150 131 172 195 172 205 185 178 175 153 150 190 190 133 192 166 158 194 152 157 149 158 219 175 178 221
120 124 113 105 106 137 110 134 136 109 122 162 173 153 88 147 168 156 150 170 162 164 173 149 173 177 152 197 187 155 193 162 162 147 188 203 156 185 184 181 204 166 192 195 166 173 181
156 114 133 152 138 113 117 101 124 173 154 164 110 162 192 108 179 172 151 179 160 136 168 198 182 184 153 194 185 181 179 182 177 174 198 183 183 204 210 195 169 191 211 211 201 203 229
103 130 135 105 101 122 146 126 120 137 167 160 165 130 157 184 167 158 169 156 162 172 171 174 174 190 203 172 188 192 184 195 162 187 189 185 184 183 196 208 221 213 209 212 247 244 286
99 113 120 102 122 143 98 119 131 123 148 152 158 119 108 103 181 177 155 176 144 172 183 192 177 184 169 182 191 198 197 181 197 180 185 195 194 188 203 208 202 229 222 306 293 288 278
117 141 132 125 134 99 148 134 157 168 136 125 126 145 92 163 177 172 176 178 172 183 173 183 181 187 183 190 174 201 197 196 190 194 203 188 180 196 220 202 221 233 222 296 274 274 268
139 114 134 134 139 147 166 129 141 147 174 136 143 180 162 149 150 165 158 168 163 172 180 187 166 181 167 193 179 194 188 202 183 189 197 182 195 199 190 212 227 234 229 272 275 266 252
145 148 140 101 154 105 91 119 125 141 138 168 148 108 152 156 175 185 176 157 165 179 182 183 169 183 175 183 189 197 201 188 197 195 185 193 186 198 207 220 245 216 237 271 266 262 276
136 118 158 145 102 98 112 110 126 127 128 109 98 99 103 140 150 165 165 174 164 184 162 190 153 186 196 186 187 186 181 199 197 193 181 186 186 198 205 222 257 270 273 270 267 284 274
159 117 131 132 143 126 153 146 131 115 114 103 106 168 151 143 156 165 162 157 160 166 173 171 169 187 183 196 183 203 193 190 189 195 186 193 189 209 212 227 224 218 279 269 282 277 264
143 128 135 108 137 148 147 173 135 146 100 154 125 172 157 128 150 153 160 161 158 172 176 169 160 177 176 178 180 188 184 179 190 198 196 203 200 206 217 231 246 281 275 277 281 263 278
115 172 163 129 156 142 136 149 138 124 103 163 161 138 162 173 179 170 166 156 171 166 173 182 187 174 177 203 183 201 191 195 206 198 192 214 205 219 215 227 258 288 270 284 262 263 430
155 124 127 102 113 127 111 153 158 152 105 150 134 152 167 163 156 154 169 149 179 151 180 183 163 176 179 187 195 185 199 192 199 204 207 212 201 213 249 226 218 268 277 271 260 428 402
107 138 139 134 107 141 167 126 109 125 161 99 143 140 171 157 168 157 161 173 166 168 182 174 181 165 179 185 186 185 178 199 198 211 213 204 227 214 222 234 289 274 297 258 416 405 390
160 162 155 161 125 122 143 106 167 152 126 137 161 156 155 170 168 158 157 188 161 161 192 187 179 170 176 185 194 186 185 210 206 208 211 213 221 217 233 285 275 276 276 259 394 389 369
120 160 134 169 126 152 147 119 137 161 164 158 138 171 177 182 178 169 157 190 154 166 168 171 182 176 181 160 199 195 203 198 214 205 207 213 217 224 249 285 278 278 261 319 385 377 354
160 158 106 158 161 101 167 164 155 166 149 167 168 161 163 166 182 172 158 158 165 166 170 181 173 167 180 180 195 192 185 196 213 205 187 218 226 243 235 285 281 304 257 396 373 363 346
163 168 148 126 165 118 126 145 171 171 150 175 154 165 171 183 154 159 169 159 185 172 168 188 178 179 184 181 188 191 195 207 217 206 213 217 217 234 246 280 275 263 274 384 363 351 340
171 157 168 101 94 174 162 172 170 110 181 174 176 143 175 153 161 171 156 165 171 179 182 176 185 168 182 186 193 190 198 212 208 221 220 213 225 245 290 282 283 256 405 378 357 341 384
171 162 105 101 161 147 147 149 153 156 159 173 146 178 161 171 176 149 166 169 162 165 168 191 181 190 196 191 185 186 214 201 205 219 210 221 242 254 288 274 273 265 394 372 344 349 343
177 122 171 159 148 158 136 144 171 161 155 161 176 158 176 162 175 152 174 157 167 183 175 178 188 191 182 188 189 193 196 204 217 228 222 228 230 292 284 273 258 397 381 351 349 337 331
167 172 154 179 191 166 164 162 161 150 153 164 190 181 181 176 154 163 164 178 169 172 186 186 186 179 187 189 202 195 213 209 224 215 221 236 243 294 292 270 256 413 370 352 339 332 320
124 161 162 157 162 180 173 168 176 169 163 163 183 169 172 160 171 181 164 192 182 186 182 172 181 193 191 187 197 195 202 219 214 227 228 245 260 287 276 261 278 382 365 341 336 327 312
Wind_Speed
14 23 8 30 11 26 7 35 14 35 31 21 35 43 29 38 30 37 44 44 43 41 42 28 40 31 38 38 43 43 33 33 33 37 43 46 49 45 45 47 50 52 51 56 49 56 55
22 11 27 15 32 29 34 28 36 28 36 33 40 33 32 37 30 23 39 39 42 37 47 43 33 39 39 40 40 37 36 39 39 38 40 48 47 44 48 52 53 56 59 63 49 67 62
15 19 11 27 31 28 26 28 36 16 23 46 27 27 48 37 27 38 44 40 40 41 36 35 44 39 33 46 41 38 42 38 40 40 41 42 43 47 51 54 58 63 67 67 55 60 68
16 19 6 20 26 21 30 37 37 42 33 43 26 49 47 29 27 34 45 51 45 33 45 38 41 44 36 35 49 38 43 33 44 42 41 45 42 55 57 56 57 58 45 63 66 68 64
19 5 28 24 25 23 23 26 32 32 37 47 25 42 45 37 44 37 36 37 48 45 46 37 42 49 53 52 50 59 55 37 46 41 43 40 46 55 55 55 57 49 64 66 70 66 69
9 27 22 19 17 18 31 29 25 42 34 45 37 49 56 38 40 37 40 48 52 38 55 57 58 50 53 48 54 43 54 48 53 54 53 43 56 51 57 63 62 65 66 66 73 74 76
24 23 26 31 29 27 16 35 42 39 29 34 39 41 32 34 42 32 41 72 60 48 68 50 63 41 64 57 52 50 65 61 68 59 42 60 50 65 64 72 73 62 69 85 83 83 91
27 27 23 19 19 27 28 37 40 34 37 44 40 41 25 35 45 44 42 49 33 50 64 67 56 57 65 73 61 60 72 56 69 68 59 76 60 58 69 72 86 81 81 77 75 80 87
27 22 26 30 28 22 44 23 38 36 45 47 41 45 41 47 50 52 52 59 44 64 55 74 65 63 67 71 68 66 60 68 72 64 84 62 63 92 93 84 86 89 91 91 87 91 98
18 31 32 22 23 41 33 46 45 47 49 49 51 52 55 51 55 50 54 42 51 57 65 58 60 83 78 55 80 81 74 85 69 77 80 65 79 72 90 96 106 92 94 97 100 100 79
19 29 37 21 46 34 26 46 44 52 49 52 57 48 46 46 55 58 53 63 53 61 68 80 67 81 59 78 81 86 88 74 90 68 73 87 84 82 105 104 87 112 102 79 76 76 76
32 41 38 32 34 24 42 44 53 54 47 56 57 47 36 56 58 63 63 68 66 76 67 79 73 88 75 92 84 93 93 93 89 92 100 87 73 103 119 110 119 109 102 77 80 81 81
35 29 35 37 38 42 45 48 45 56 45 45 53 50 59 60 64 65 65 68 67 74 77 85 62 89 70 94 86 99 96 97 92 96 101 81 105 107 89 122 117 109 111 92 88 88 88
37 43 50 26 51 32 29 52 54 47 53 55 62 50 64 66 66 66 72 71 74 80 86 85 76 90 89 98 101 101 100 103 103 105 90 106 93 108 118 130 115 101 110 95 96 95 95
42 46 57 46 30 32 45 42 60 59 50 49 50 53 54 64 72 73 77 78 77 88 78 93 67 99 102 106 106 99 97 110 109 104 86 98 102 108 117 126 121 115 102 101 100 100 93
59 38 46 50 56 54 61 52 57 48 56 50 58 69 70 66 79 77 79 79 81 85 86 88 84 109 102 108 108 112 113 99 106 114 95 110 103 126 130 129 115 108 106 104 105 101 100
47 45 51 35 45 53 51 53 57 60 49 71 49 70 73 73 71 75 82 82 82 93 93 91 82 103 102 108 92 117 110 92 116 120 115 122 115 126 138 138 133 113 110 110 105 105 111
49 61 69 57 65 55 54 62 59 55 49 77 80 67 83 81 80 86 85 81 96 94 97 104 103 101 109 117 114 122 122 128 127 126 112 133 118 139 137 135 123 112 113 111 108 110 46
59 53 54 41 46 63 42 72 64 72 52 75 67 77 86 85 79 80 88 77 95 84 106 106 93 105 114 124 125 121 129 125 131 137 131 132 116 137 137 145 114 116 115 110 114 49 46
46 65 65 63 51 63 76 53 52 69 86 57 78 80 86 86 91 82 88 100 97 97 107 101 112 90 120 122 127 123 105 136 136 140 141 125 147 142 149 147 113 118 113 115 52 47 45
75 75 71 72 64 58 67 48 82 73 71 77 84 88 86 93 88 88 88 100 92 96 110 113 114 103 116 126 134 133 120 139 143 139 142 142 142 148 157 125 123 121 115 119 55 46 45
59 79 66 79 67 75 66 64 74 89 91 90 76 95 91 93 94 95 90 99 87 106 107 110 119 115 127 82 138 145 141 144 147 139 136 150 153 156 142 124 124 121 120 92 46 43 44
81 78 43 83 85 51 86 89 84 85 81 95 92 89 100 98 96 91 89 90 101 108 115 119 112 108 125 122 143 144 118 141 149 143 105 154 160 154 156 122 121 120 120 42 45 45 43
90 87 74 63 74 51 71 72 91 93 82 98 87 101 95 97 91 96 100 98 116 112 113 121 120 125 129 121 136 136 150 157 149 149 154 153 153 154 148 124 120 117 109 39 42 43 42
92 89 80 43 43 92 93 87 87 57 92 99 95 68 101 89 102 105 88 107 110 115 120 119 127 100 130 131 145 144 158 152 153 159 154 156 158 155 123 123 119 119 35 35 38 43 34
96 95 56 43 92 72 79 83 83 91 96 104 68 106 104 104 102 69 105 109 107 108 110 126 128 134 139 141 132 137 152 151 157 163 146 161 160 150 123 122 117 118 31 32 37 32 26
98 68 100 93 75 84 75 76 98 89 86 102 100 90 107 101 111 83 110 95 111 122 120 125 132 137 126 142 138 148 153 157 165 157 158 159 132 128 124 120 120 43 34 37 32 28 26
104 102 84 98 94 101 98 99 100 86 77 91 102 107 108 111 73 103 108 119 115 105 127 131 134 119 139 144 154 151 157 161 155 151 154 159 151 125 120 117 117 25 30 30 32 26 26
69 100 102 93 99 100 103 92 102 103 105 107 103 105 113 99 116 115 102 120 122 126 127 111 124 141 144 144 150 151 160 165 149 159 160 144 147 124 118 116 120 26 27 29 27 24 23
Wind_Direction
19 7 23 24 356 10 2 0 342 9 7 356 2 357 355 12 8 359 348 348 1 354 352 352 346 332 346 328 327 324 326 323 317 317 312 307 309 315 306 303 302 303 300 304 298 301 297
13 40 14 28 4 2 15 2 8 15 0 359 1 357 354 349 351 345 349 6 344 5 356 360 335 350 340 349 344 333 328 331 320 320 311 308 318 310 309 311 309 310 308 295 284 306 304
33 347 353 350 351 359 25 350 6 312 360 5 340 353 354 10 358 347 342 351 354 1 8 1 18 11 360 11 1 355 356 337 340 338 332 328 324 322 316 315 313 310 306 303 298 298 304
336 360 331 342 343 9 359 357 1 355 352 351 350 357 350 357 352 342 340 358 2 332 11 349 352 10 5 346 8 357 358 336 351 333 331 335 322 312 309 319 317 305 294 301 301 303 294
329 13 345 346 329 356 15 358 342 348 349 353 325 347 358 346 348 345 346 346 2 342 4 347 358 2 327 323 4 5 2 337 344 328 329 317 325 330 315 313 315 307 305 299 295 302 295
310 337 322 339 8 0 354 355 355 347 334 353 342 347 345 345 351 349 356 357 346 349 357 356 357 355 355 354 358 347 359 347 341 346 339 320 335 302 303 319 314 306 309 300 305 305 303
335 309 335 327 338 343 344 344 350 347 329 337 347 357 351 344 349 343 349 340 352 327 340 356 358 345 355 353 340 340 321 331 350 343 322 344 332 326 330 315 307 313 312 319 291 290 308
309 325 328 332 339 342 330 336 339 332 347 344 337 342 324 344 346 336 333 356 345 349 348 335 351 345 342 352 351 342 352 316 324 323 336 347 324 322 312 322 327 302 312 308 306 305 302
319 301 325 331 323 325 324 339 336 335 335 338 345 340 334 345 344 348 339 353 342 327 347 355 353 348 341 354 348 348 340 343 344 337 344 328 322 342 337 329 317 311 322 317 304 305 304
290 304 311 303 310 321 327 315 317 335 336 336 336 324 340 341 341 337 346 333 342 345 348 344 348 355 347 342 349 347 346 343 339 340 342 331 340 325 333 337 336 328 320 316 309 306 294
291 315 302 313 298 322 323 314 312 317 335 335 331 329 332 337 342 344 333 342 318 342 350 352 348 351 338 349 348 343 342 343 340 333 335 340 341 332 334 334 328 327 322 306 303 301 301
294 300 289 307 295 314 314 319 325 326 331 325 316 334 337 333 340 341 342 340 341 345 344 349 347 351 343 349 337 343 341 339 341 341 340 338 325 336 336 332 333 327 328 311 314 312 311
288 293 304 307 302 314 315 308 322 320 324 328 322 332 332 325 334 336 335 339 338 339 345 349 337 347 335 345 344 345 345 339 341 341 340 330 338 335 326 336 332 330 331 322 319 317 312
290 296 297 297 308 315 329 310 306 321 309 325 324 327 329 331 334 338 336 333 336 344 346 345 340 344 343 346 345 343 341 342 341 341 337 339 327 340 337 337 331 326 330 324 320 317 313
272 288 300 300 302 321 317 315 308 313 318 322 328 330 331 322 328 332 334 337 333 342 337 342 321 344 343 345 344 344 343 342 340 341 332 331 331 336 337 337 333 334 327 324 320 317 315
293 289 288 300 298 292 305 312 299 310 315 323 322 318 322 321 327 329 332 329 334 336 338 339 335 342 342 341 343 339 343 338 341 339 335 333 331 337 338 339 333 334 325 325 322 320 317
283 278 282 293 290 296 304 308 312 310 315 316 329 319 319 318 321 325 327 330 331 336 336 335 329 339 341 341 335 342 343 336 339 337 338 336 337 339 341 339 337 328 327 327 325 323 321
288 283 289 284 296 296 293 307 299 314 315 313 316 311 320 320 322 324 327 326 331 334 333 336 335 337 339 338 341 337 338 338 337 337 336 335 335 339 342 340 335 328 329 328 325 324 314
280 277 291 286 289 295 299 301 303 307 315 313 310 317 318 319 321 321 324 322 326 327 331 331 329 337 338 338 338 340 337 338 337 337 336 338 337 340 337 341 332 332 330 328 326 316 316
282 282 284 283 295 293 293 297 306 300 305 321 312 316 312 319 317 322 323 323 327 328 329 330 336 330 337 336 338 339 334 336 337 335 336 336 337 339 341 339 332 333 332 329 323 317 319
274 277 283 281 286 292 294 308 295 304 304 308 304 313 317 313 313 320 323 318 327 329 327 329 335 334 335 334 334 336 336 334 335 336 337 337 337 339 339 335 334 333 332 331 322 320 324
276 276 279 277 286 292 295 298 295 299 299 305 309 304 308 309 312 315 320 320 327 329 331 331 331 333 333 324 332 333 334 336 333 336 338 337 336 339 337 334 334 333 333 330 323 323 326
271 275 277 282 284 289 286 289 298 297 300 300 302 307 308 310 309 312 320 323 324 329 328 327 330 328 331 334 332 335 334 335 332 336 328 336 336 338 338 334 335 337 332 324 321 323 325
270 272 278 287 283 296 292 293 290 293 300 297 305 304 306 305 318 319 317 325 318 324 326 323 329 329 330 334 335 332 333 331 331 334 333 335 336 337 337 335 335 334 333 324 322 326 325
266 275 272 287 293 282 288 289 291 303 294 296 299 312 304 318 315 312 323 320 322 322 324 325 326 328 329 331 330 332 330 330 332 331 332 334 335 336 336 335 335 334 324 325 328 327 332
264 270 274 290 279 286 291 295 299 300 301 296 307 301 310 307 308 320 318 317 323 325 325 322 326 326 327 331 331 332 329 331 331 330 334 332 335 336 336 335 334 335 327 328 331 333 344
263 270 268 278 286 285 289 286 286 292 301 299 297 307 301 310 305 317 312 323 320 318 322 323 324 324 330 329 327 329 332 330 329 330 331 332 333 335 335 335 334 330 327 330 334 339 343
265 266 276 272 275 277 281 284 288 299 296 298 295 294 300 302 309 315 316 314 319 321 318 321 323 327 326 328 324 327 325 329 329 331 332 332 333 336 336 335 333 313 322 325 330 338 338
271 271 272 271 277 276 277 283 281 283 290 294 292 298 298 312 303 306 317 312 315 317 318 324 323 321 324 326 325 328 325 326 329 329 331 333 334 335 336 333 338 314 317 323 328 338 337